Regional Weather Roundup
Issued by NWS

Home | Current Version | Previous Version | Text Only | Print | Product List | Glossary On
Versions: 1 2 3 4 5 6 7 8 9 10 11 12 13 14 15 16 17 18 19 20 21 22 23 24 25 26 27 28 29 30 31 32 33 34 35 36 37 38 39 40 41 42 43 44 45 46 47 48 49 50
000
ASUS43 KMKX 171900
RWRWI

WISCONSIN REGIONAL WEATHER ROUNDUP
NATIONAL WEATHER SERVICE MILWAUKEE/SULLIVAN WI
200 PM CDT TUE SEP 17 2019

NOTE: "FAIR" INDICATES FEW OR NO CLOUDS BELOW 12,000 FEET WITH NO
SIGNIFICANT WEATHER AND/OR OBSTRUCTIONS TO VISIBILITY.

WIZ001-002-006>008-014>016-023>028-172000-
NORTHWEST WISCONSIN

CITY           SKY/WX    TMP DP  RH WIND       PRES   REMARKS
SUPERIOR ARPT  LGT RAIN  53  53 100 N6        29.98S
ASHLAND        FAIR      71  65  81 SE5       30.01F
HAYWARD        FAIR      74  64  71 S5        30.01F
SIREN          FAIR      80  66  62 S10       29.96F HX  82
CUMBERLAND     FAIR      79  63  57 S16       30.00F HX  80
RICE LAKE      FAIR      83  66  56 S13G21    30.02F HX  85
CHETEK         FAIR      82  68  62 SE12G21   30.02F HX  85
LADYSMITH      FAIR      80  64  56 SE8G16    30.06F HX  82
EAU CLAIRE     FAIR      84  65  52 SE16G23   30.00F HX  86
MENOMONIE      FAIR      79  65  60 SE13G18   30.01F HX  81
NEW RICHMOND   FAIR      81  65  58 S14       29.98F HX  82
OSCEOLA        FAIR      80  68  65 S18       29.98F HX  83
$$

WIZ003>005-009-010-017-018-172000-
NORTH CENTRAL WISCONSIN

CITY           SKY/WX    TMP DP  RH WIND       PRES   REMARKS
MANITOWISH WTR FAIR      73  60  65 S8        30.08F
ARBOR VITAE    FAIR      77  62  58 S7        30.10F
WOODRUFF       FAIR      77  62  58 S7        30.10F
RHINELANDER    FAIR      77  57  50 S9        30.12F
EAGLE RIVER    FAIR      75  54  47 SW5       30.11F
LAND O LAKES   FAIR      73  58  60 S5        30.13F
PHILLIPS       FAIR      76  58  53 S7        30.07F
TOMAHAWK       FAIR      76  57  51 S3        30.12F
MEDFORD        FAIR      75  59  56 S12       30.09F
MERRILL        FAIR      80  59  48 S7        30.11F HX  81
$$

WIZ029-030-035-036-043>047-172000-
CENTRAL WISCONSIN

CITY           SKY/WX    TMP DP  RH WIND       PRES   REMARKS
WAUSAU         FAIR      77  61  57 S10       30.10F
MOSINEE        MOSUNNY   77  63  61 S9        30.13F
MARSHFIELD     FAIR      81  61  50 SE14      30.09F HX  82
STEVENS POINT  FAIR      77  62  59 SE8       30.12F
WAUPACA        FAIR      82  62  51 S7        30.12F HX  83
WAUTOMA        NOT AVBL
WISC RAPIDS    FAIR      83  63  50 S8        30.10F HX  84
CAMP DOUGLAS   NOT AVBL
$$

WIZ011>013-019>022-031-037>040-048>050-172000-
NORTHEAST WISCONSIN

CITY           SKY/WX    TMP DP  RH WIND       PRES   REMARKS
ANTIGO         FAIR      75  61  60 S9        30.14F
SHAWANO        FAIR      80  63  55 S6        30.12F HX  81
OCONTO         FAIR      73  65  75 S7        30.14F
STURGEON BAY   FAIR      74  66  76 MISG      30.16F
GREEN BAY      FAIR      78  66  66 SW9       30.14F HX  80
MANITOWOC      FAIR      69  65  86 S8        30.17F
APPLETON       MOSUNNY   79  59  50 S8        30.13F HX  80
CLINTONVILLE   NOT AVBL
OSHKOSH        FAIR      79  63  57 S12       30.12F HX  80
$$

WIZ032>034-041-042-053>061-172000-
SOUTHWEST WISCONSIN

CITY           SKY/WX    TMP DP  RH WIND       PRES   REMARKS
LA CROSSE      FAIR      85  61  44 S12       30.04F HX  85
SPARTA         FAIR      81  59  47 S8        30.08F HX  81
VIROQUA          N/A     79  66  63 SE9       30.10F HX  81
BOSCOBEL       FAIR      80  66  62 VRB5      30.10F HX  82
PRAIRIE DU CHI FAIR      74  61  63 SE7       30.09F
PLATTEVILLE    FAIR      76  71  85 SE9       30.13F
$$

WIZ056-057-062-063-064-067-068-172000-
SOUTH CENTRAL WISCONSIN

CITY           SKY/WX    TMP DP  RH WIND       PRES   REMARKS
REEDSBURG      FAIR      77  64  63 S7        30.11F
BARABOO/DELLS  FAIR      78  62  58 S12       30.12F HX  80
LONE ROCK      NOT AVBL
MINERAL POINT  NOT AVBL
MADISON        FAIR      77  64  64 S12       30.12F
MIDDLETON      FAIR      80  64  58 SE10      30.14F HX  81
WATERTOWN      FAIR      76  65  68 SE9       30.14F
MONROE         FAIR      78  65  65 SE9G16    30.13F
JANESVILLE     NOT AVBL
$$

WIZ051-052-058>065-066-070>072-172000-
SOUTHEAST WISCONSIN

CITY           SKY/WX    TMP DP  RH WIND       PRES   REMARKS
MILWAUKEE      FAIR      72  64  76 SE10      30.16F
WAUKESHA       SUNNY     73  63  68 SE5       30.17F
MILWAUKEE/TIMM SUNNY     75  61  60 S6        30.17F
RACINE         FAIR      72  64  76 SE8       30.18F
KENOSHA        FAIR      76  67  73 SE10      30.17F
FOND DU LAC    FAIR      79  63  57 S8        30.13F HX  80
SHEBOYGAN      FAIR      74  65  73 S8        30.16F
WEST BEND      FAIR      75  64  69 S5        30.16F
JUNEAU         NOT AVBL
$$

LSZ147-162-172000-
LAKE SUPERIOR

STATION/POSITION TIME  TEMP    WIND        PRES    WAVE
                       AIR SEA DIR/SP/G            HT/PER
                 (UTC) (F)     (DEG/KT/KT) (MB)    (FT/S)
W MID LAKE BUOY  1750   63 55  170/  4/  4 1016.8R   1/ 3
DEVILS ISLAND    1800   58     300/  5/  5 1017.2F
SAXON HARBOR     1840   70     300/  4/ 12 1016.3S
$$

LMZ867-665-643>646-172000-
LAKE MICHIGAN

STATION/POSITION TIME  TEMP    WIND        PRES    WAVE
                       AIR SEA DIR/SP/G            HT/PER
                 (UTC) (F)     (DEG/KT/KT) (MB)    (FT/S)
CHAMBERS ISLAND  1840   71     100/  6/  9   N/A
N MID LAKE BUOY  1840   61 61  180/  8/ 10 1022.8F
NORTHPORT PIER   1840   62     130/ 10/ 16 1021.3F
KEWAUNEE LAKESHO 1806   62     170/  8/ 11 1021.3
SHEBOYGAN LAKESH 1800   64     180/ 15/ 16 1021.8F
PORT WASHINGTON  1830   64     160/  8/ 10 1022.7F
ATWATER BUOY     1830   62 60  140/  8/ 10 1022.0F   1/ 5
MILWAUKEE LAKESH 1830   62     120/ 12/ 13   N/A
S MID LAKE BUOY  1840   64 68  110/  4/  6 1022.5F
KENOSHA   LAKESH 1800   69     120/  5/  6 1021.7
$$

TC  - TEMPERATURE IN CELSIUS
VSB - VISIBILITY IN STATUTE MILES
WCI - WIND CHILL INDEX
HX  - HEAT INDEX




USA.gov is the U.S. government's official web portal to all federal, state and local government web resources and services.